Weather in Telchye

Russia / Oryol Oblast     53°20′52″N   36°19′56″E
temp.,
°C
wind,
m/s
gust,
m/s
humid.,
%
clouds,
%
prec.,
mm/h
press.,
hPa
HPBL,
m
14 june, mon
mon1400:00+15s2293100 0.5 101023
03:00+14ssw229385 0.5 101111
06:00+16sse239338 0.0 101289
09:00+20ssw227821 0.0 1013441
12:00+23sw126752 0.0 10141052
15:00+24nw116313 0.6 10141222
18:00+24e116618 0.1 10141131
21:00+19ene11835 0.1 101411
15 june, tue
tue1500:00+17ne118898 0.9 101511
03:00+16nne22915 0.9 101411
06:00+17ne11895 0.0 101443
09:00+21n22808 0.1 1014406
12:00+24nnw226893 0.3 1013937
15:00+25nw12626 1.4 10121250
18:00+24wnw11667 0.8 1010916
21:00+19wnw2281100 3.1 101111
16 june, wed
wed1600:00+17nw2288100 0.1 101014
03:00+16nnw359499 0.6 101190
06:00+16nnw389513 0.0 1012232
09:00+20n46805 0.0 1012503
12:00+23n566950 0.0 10131128
15:00+23n56674 0.0 10141292
18:00+22n57760 0.1 1015522
21:00+17n47870 0.3 1017126
17 june, thu
thu1700:00+14nne4108796 0.0 1019178
03:00+13ne38905 0.0 1020138
06:00+13ne38890 0.0 1022208
09:00+18ene47700 0.0 1023578
12:00+20ene56590 0.0 10241334
15:00+21ne56590 0.0 10241465
18:00+20ne47710 0.0 1024796
21:00+15ene35870 0.0 102468
18 june, fri
fri1800:00+13ene22890 0.0 102621
03:00+12ne33870 0.0 102727
06:00+14ne34850 0.0 102796
09:00+19ene35710 0.0 1027470
12:00+22e45610 0.0 10271329
15:00+23e346012 0.0 10271690
18:00+22e23700 0.0 10261344
21:00+17ese22830 0.0 102711